Location: Unspecified
(35.6961°N, 0.0000°E)
Time: 00:49:13
(UTC+00:00)

Courier 1B Rocket - Pass Details

Date: 21 May 2019
Orbit: 920 x 1202 km, 28.2° (Epoch: 16 June)

Event Time Altitude Azimuth Distance (km) Brightness Sun altitude
Rises 21:09:55 0° 268° (W) 4,050 8.8 -21.5°
Reaches altitude 10° 21:13:05 10° 259° (W) 3,056 8.0 -22.0°
Maximum altitude 21:19:41 34° 198° (SSW) 1,752 6.0 -22.8°
Enters shadow 21:20:43 32° 182° (S) 1,784 6.0 -23.0°
